| time (UTC) | temp C | wind direction | speed KPH | gust KPH | rain 1hr cm | rain 24hr cm | rain mn cm | humidity % | barometer mb |
| 20260505014607 | 12 | 360 | 1.6 | 6.4 | 0.00 | 0.00 | 0.00 | 74 | 1017.4 |
| 20260505013051 | 12 | 11 | 3.2 | 8.0 | 0.00 | 0.00 | 0.00 | 75 | 1017.5 |
| 20260505011605 | 12 | 15 | 0.0 | 6.4 | 0.00 | 0.00 | 0.00 | 74 | 1017.5 |
| 20260505010054 | 12 | 22 | 3.2 | 6.4 | 0.00 | 0.00 | 0.00 | 74 | 1017.7 |
| 20260505004555 | 12 | 25 | 3.2 | 6.4 | 0.00 | 0.00 | 0.00 | 73 | 1018.1 |
| 20260505003053 | 12 | 9 | 1.6 | 6.4 | 0.00 | 0.00 | 0.00 | 73 | 1018.4 |
| 20260505001550 | 12 | 355 | 1.6 | 11.3 | 0.00 | 0.00 | 0.00 | 72 | 1018.7 |
| 20260505000105 | 12 | 13 | 1.6 | 6.4 | 0.00 | 0.00 | 0.00 | 71 | 1018.8 |
| 20260504234552 | 12 | 11 | 1.6 | 6.4 | 0.00 | 0.00 | 0.00 | 70 | 1018.9 |
| 20260504233107 | 12 | 360 | 1.6 | 6.4 | 0.00 | 0.00 | 0.00 | 70 | 1019.1 |
| 20260504231551 | 12 | 0 | 3.2 | 6.4 | 0.00 | 0.00 | 0.00 | 69 | 1019.3 |
| 20260504230053 | 12 | 13 | 3.2 | 8.0 | 0.00 | 0.00 | 0.00 | 68 | 1019.5 |
| 20260504224602 | 12 | 333 | 4.8 | 6.4 | 0.00 | 0.00 | 0.00 | 69 | 1019.7 |
| 20260504223119 | 12 | 335 | 1.6 | 8.0 | 0.00 | 0.00 | 0.00 | 69 | 1019.6 |
| 20260504221552 | 12 | 98 | 3.2 | 4.8 | 0.00 | 0.00 | 0.00 | 69 | 1019.7 |
| 20260504220053 | 12 | 5 | 1.6 | 6.4 | 0.00 | 0.00 | 0.00 | 69 | 1019.8 |
| 20260504214555 | 13 | 19 | 1.6 | 3.2 | 0.00 | 0.00 | 0.00 | 69 | 1019.8 |
| 20260504213104 | 13 | 0 | 0.0 | 3.2 | 0.00 | 0.00 | 0.00 | 71 | 1019.9 |
| 20260504211553 | 13 | 12 | 1.6 | 4.8 | 0.00 | 0.00 | 0.00 | 71 | 1019.9 |
| 20260504210101 | 13 | 0 | 0.0 | 4.8 | 0.00 | 0.00 | 0.00 | 71 | 1020.1 |
| 20260504204555 | 13 | 0 | 0.0 | 6.4 | 0.00 | 0.00 | 0.00 | 70 | 1020.1 |
| 20260504203108 | 14 | 5 | 1.6 | 4.8 | 0.00 | 0.00 | 0.00 | 69 | 1020.1 |
| 20260504201557 | 15 | 0 | 0.0 | 3.2 | 0.00 | 0.00 | 0.00 | 67 | 1020.2 |
| 20260504200106 | 15 | 0 | 0.0 | 3.2 | 0.00 | 0.00 | 0.00 | 66 | 1020.2 |
| 20260504194553 | 15 | 0 | 0.0 | 3.2 | 0.00 | 0.00 | 0.00 | 65 | 1020.0 |
| 20260504193058 | 15 | 0 | 0.0 | 8.0 | 0.00 | 0.00 | 0.00 | 63 | 1019.9 |
| 20260504191557 | 15 | 153 | 0.0 | 6.4 | 0.00 | 0.00 | 0.00 | 57 | 1019.7 |
| 20260504190105 | 15 | 169 | 3.2 | 11.3 | 0.00 | 0.00 | 0.00 | 58 | 1019.6 |
| 20260504184559 | 15 | 0 | 0.0 | 3.2 | 0.00 | 0.00 | 0.00 | 60 | 1019.6 |
| 20260504183057 | 16 | 0 | 3.2 | 14.5 | 0.00 | 0.00 | 0.00 | 58 | 1019.5 |
| 20260504181554 | 16 | 140 | 4.8 | 11.3 | 0.00 | 0.00 | 0.00 | 57 | 1019.7 |
| 20260504180059 | 16 | 163 | 3.2 | 11.3 | 0.00 | 0.00 | 0.00 | 55 | 1019.7 |
| 20260504174609 | 16 | 0 | 0.0 | 8.0 | 0.00 | 0.00 | 0.00 | 53 | 1019.7 |
| 20260504173055 | 17 | 141 | 3.2 | 14.5 | 0.00 | 0.00 | 0.00 | 51 | 1019.6 |
| 20260504171558 | 17 | 156 | 3.2 | 9.7 | 0.00 | 0.00 | 0.00 | 50 | 1019.6 |
| 20260504081553 | 17 | 113 | 0.0 | 9.7 | 0.00 | 0.00 | 0.00 | 42 | 1021.1 |
| 20260504044601 | 12 | 0 | 1.6 | 8.0 | 0.00 | 0.00 | 0.00 | 48 | 1020.3 |
| 20260504043057 | 12 | 12 | 3.2 | 8.0 | 0.00 | 0.00 | 0.00 | 46 | 1020.3 |
| 20260504041553 | 12 | 0 | 0.0 | 4.8 | 0.00 | 0.00 | 0.00 | 44 | 1020.1 |
| 20260504040105 | 12 | 323 | 3.2 | 4.8 | 0.00 | 0.00 | 0.00 | 44 | 1019.9 |
| 20260504034610 | 12 | 355 | 1.6 | 6.4 | 0.00 | 0.00 | 0.00 | 44 | 1020.0 |
| 20260504033048 | 12 | 355 | 3.2 | 6.4 | 0.00 | 0.00 | 0.00 | 42 | 1019.9 |
| 20260504031552 | 12 | 332 | 3.2 | 6.4 | 0.00 | 0.00 | 0.00 | 42 | 1020.0 |
| 20260504030117 | 12 | 333 | 0.0 | 6.4 | 0.00 | 0.00 | 0.00 | 42 | 1020.0 |
| 20260504024555 | 12 | 320 | 3.2 | 6.4 | 0.00 | 0.00 | 0.00 | 41 | 1020.1 |
| 20260504023049 | 12 | 348 | 1.6 | 4.8 | 0.00 | 0.00 | 0.00 | 42 | 1020.3 |
| 20260504021554 | 12 | 355 | 0.0 | 4.8 | 0.00 | 0.00 | 0.00 | 44 | 1020.4 |
| 20260504020100 | 12 | 331 | 1.6 | 4.8 | 0.00 | 0.00 | 0.00 | 43 | 1020.5 |